Indiana, PA

7:15 PM EST on December 12, 2019 (GMT -0500)
Indiana County-Stewart

Weather History for KIDI - August, 2019

Change the Weather History Date:

Wednesday, August 21, 2019

  Actual Average Record
Temperature  
Mean Temperature 74 °F -  
Max Temperature 80 °F 78 °F 91 °F (1959)
Min Temperature 68 °F 55 °F 37 °F (1950)
Cooling Degree Days 9    
Growing Degree Days 24 (Base 50)    
Moisture  
Dew Point 69 °F    
Average Humidity 88    
Maximum Humidity 100    
Minimum Humidity 65    
Precipitation  
Precipitation 0.00 in - - ()
Sea Level Pressure  
Sea Level Pressure 30.02 in    
Wind  
Wind Speed 7 mph ()    
Max Wind Speed 17 mph    
Max Gust Speed 23 mph    
Visibility 9.2 miles    
Events      
Averages and records for this station are not official NWS values.
T = Trace of Precipitation, MM = Missing Value Source: Averaged Metar Reports

Daily Weather History Graph

Daily Weather History Graph

Search for Another Location

Airport or City:

Astronomy

Aug. 21, 2019 Rise Set
Actual Time 6:32 AM EDT 8:05 PM EDT
Civil Twilight 6:03 AM EDT 8:34 PM EDT
Nautical Twilight 5:28 AM EDT 9:09 PM EDT
Astronomical Twilight 4:51 AM EDT 9:46 PM EDT
Moon 11:20 PM EDT (8/21) 12:08 PM EDT (8/21)
Length of Visible Light 14h 31m
Length of Day
13h 33m
Waning Gibbous, 69% of the Moon is Illuminated
Aug 21
Waning Gibbous
Aug 23
Last Quarter
Aug 30
New
Sep 5
First Quarter
Sep 14
Full

Hourly Weather History & Observations

Time (EDT) Temp. Heat Index Dew Point Humidity Pressure Visibility Wind Dir Wind Speed Gust Speed Precip Events Conditions
12:15 AM 75.2 °F - 68.0 °F 78% 30.08 in 10.0 mi NW 11.5 mph - N/A   Scattered Clouds
12:35 AM 73.4 °F - 68.0 °F 83% 30.11 in 4.0 mi NW 17.3 mph - N/A   Haze
12:55 AM 69.8 °F - 68.0 °F 94% 30.15 in 5.0 mi SW 13.8 mph - N/A   Overcast
1:15 AM 68.0 °F - 68.0 °F 100% 30.11 in 2.0 mi WNW 5.8 mph 18.4 mph N/A   Overcast
1:35 AM 68.0 °F - 68.0 °F 100% 30.09 in 10.0 mi ESE 4.6 mph - N/A   Mostly Cloudy
1:55 AM 68.0 °F - 68.0 °F 100% 30.08 in 10.0 mi SE 6.9 mph - N/A   Partly Cloudy
2:15 AM 68.0 °F - 68.0 °F 100% 30.08 in 10.0 mi South 6.9 mph - N/A   Scattered Clouds
2:35 AM 68.0 °F - 68.0 °F 100% 30.06 in 10.0 mi South 5.8 mph - N/A   Overcast
2:55 AM 68.0 °F - 68.0 °F 100% 30.04 in 10.0 mi SSE 4.6 mph - N/A   Overcast
3:15 AM 69.8 °F - 68.0 °F 94% 30.03 in 10.0 mi Calm Calm - N/A   Overcast
3:35 AM 68.0 °F - 68.0 °F 100% 30.02 in 8.0 mi SSE 4.6 mph - N/A   Overcast
3:55 AM 68.0 °F - 68.0 °F 100% 30.01 in 7.0 mi SSE 4.6 mph - N/A   Mostly Cloudy
4:15 AM 68.0 °F - 68.0 °F 100% 30.01 in 10.0 mi SSW 4.6 mph - N/A   Overcast
4:35 AM 68.0 °F - 68.0 °F 100% 30.02 in 10.0 mi WSW 6.9 mph - N/A   Mostly Cloudy
4:55 AM 68.0 °F - 68.0 °F 100% 30.01 in 10.0 mi West 4.6 mph - N/A   Overcast
5:15 AM 68.0 °F - 68.0 °F 100% 30.01 in 10.0 mi Calm Calm - N/A   Mostly Cloudy
5:35 AM 68.0 °F - 68.0 °F 100% 30.02 in 10.0 mi WSW 4.6 mph - N/A   Mostly Cloudy
5:55 AM 68.0 °F - 68.0 °F 100% 30.02 in 10.0 mi Calm Calm - N/A   Overcast
6:15 AM 68.0 °F - 68.0 °F 100% 30.03 in 10.0 mi Calm Calm - N/A   Overcast
6:35 AM 68.0 °F - 68.0 °F 100% 30.03 in 8.0 mi SW 4.6 mph - N/A   Overcast
6:55 AM 68.0 °F - 68.0 °F 100% 30.03 in 7.0 mi WSW 5.8 mph - N/A   Overcast
7:15 AM 68.0 °F - 68.0 °F 100% 30.02 in 2.5 mi SSW 3.5 mph - N/A   Overcast
7:35 AM 68.0 °F - 68.0 °F 100% 30.03 in 9.0 mi Calm Calm - N/A   Overcast
7:55 AM 69.8 °F - 69.8 °F 100% 30.03 in 9.0 mi Calm Calm - N/A   Overcast
8:15 AM 69.8 °F - 69.8 °F 100% 30.03 in 8.0 mi WSW 3.5 mph - N/A   Overcast
8:35 AM 69.8 °F - 69.8 °F 100% 30.03 in 9.0 mi SW 5.8 mph - N/A   Overcast
8:55 AM 69.8 °F - 69.8 °F 100% 30.03 in 10.0 mi SW 8.1 mph - N/A   Overcast
9:15 AM 71.6 °F - 69.8 °F 94% 30.02 in 9.0 mi SW 8.1 mph - N/A   Overcast
9:35 AM 71.6 °F - 69.8 °F 94% 30.02 in 9.0 mi WSW 6.9 mph - N/A   Overcast
9:55 AM 71.6 °F - 71.6 °F 100% 30.02 in 8.0 mi WSW 6.9 mph - N/A   Overcast
10:15 AM 71.6 °F - 71.6 °F 100% 30.02 in 9.0 mi WSW 6.9 mph - N/A   Overcast
10:35 AM 71.6 °F - 71.6 °F 100% 30.02 in 8.0 mi West 9.2 mph - N/A   Overcast
10:55 AM 71.6 °F - 71.6 °F 100% 30.02 in 8.0 mi West 8.1 mph - N/A   Overcast
11:15 AM 73.4 °F - 71.6 °F 94% 30.02 in 8.0 mi WSW 6.9 mph - N/A   Overcast
11:35 AM 73.4 °F - 71.6 °F 94% 30.02 in 9.0 mi WSW 6.9 mph - N/A   Overcast
11:55 AM 73.4 °F - 71.6 °F 94% 30.01 in 9.0 mi WSW 8.1 mph - N/A   Overcast
12:15 PM 75.2 °F - 71.6 °F 89% 30.01 in 9.0 mi Variable 6.9 mph - N/A   Overcast
12:35 PM 77.0 °F - 71.6 °F 83% 30.02 in 10.0 mi WSW 10.4 mph - N/A   Overcast
12:55 PM 77.0 °F - 71.6 °F 83% 30.02 in 10.0 mi West 9.2 mph - N/A   Overcast
1:15 PM 78.8 °F - 71.6 °F 78% 30.01 in 10.0 mi West 10.4 mph - N/A   Scattered Clouds
1:35 PM 80.6 °F 83.9 °F 69.8 °F 70% 30.00 in 10.0 mi WSW 10.4 mph 16.1 mph N/A   Mostly Cloudy
1:55 PM 80.6 °F 83.9 °F 69.8 °F 70% 30.00 in 10.0 mi WSW 10.4 mph - N/A   Mostly Cloudy
2:15 PM 78.8 °F - 69.8 °F 74% 30.00 in 10.0 mi WSW 6.9 mph 12.7 mph N/A   Mostly Cloudy
2:35 PM 78.8 °F - 68.0 °F 69% 30.00 in 10.0 mi West 13.8 mph - N/A   Overcast
2:55 PM 78.8 °F - 69.8 °F 74% 30.00 in 9.0 mi WSW 9.2 mph - N/A   Overcast
3:15 PM 78.8 °F - 68.0 °F 69% 29.99 in 10.0 mi West 11.5 mph - N/A   Overcast
3:35 PM 78.8 °F - 68.0 °F 69% 29.99 in 10.0 mi West 8.1 mph - N/A   Mostly Cloudy
3:55 PM 80.6 °F 83.9 °F 69.8 °F 70% 29.98 in 10.0 mi West 8.1 mph - N/A   Mostly Cloudy
4:15 PM 80.6 °F 83.9 °F 69.8 °F 70% 29.98 in 10.0 mi West 12.7 mph 18.4 mph N/A   Overcast
4:35 PM 80.6 °F 83.2 °F 68.0 °F 65% 29.98 in 10.0 mi West 11.5 mph - N/A   Mostly Cloudy
4:55 PM 80.6 °F 83.2 °F 68.0 °F 65% 29.97 in 10.0 mi West 12.7 mph 23.0 mph N/A   Mostly Cloudy
5:15 PM 80.6 °F 83.2 °F 68.0 °F 65% 29.97 in 10.0 mi West 11.5 mph 18.4 mph N/A   Mostly Cloudy
5:35 PM 80.6 °F 83.9 °F 69.8 °F 70% 29.98 in 10.0 mi WSW 13.8 mph - N/A   Mostly Cloudy
5:55 PM 78.8 °F - 68.0 °F 69% 29.97 in 10.0 mi WSW 12.7 mph 19.6 mph N/A   Overcast
6:15 PM 78.8 °F - 69.8 °F 74% 29.97 in 10.0 mi WSW 11.5 mph 17.3 mph N/A   Scattered Clouds
6:35 PM 78.8 °F - 69.8 °F 74% 29.97 in 10.0 mi WSW 9.2 mph - N/A   Clear
6:55 PM 78.8 °F - 69.8 °F 74% 29.97 in 10.0 mi SW 5.8 mph - N/A   Mostly Cloudy
7:15 PM 78.8 °F - 68.0 °F 69% 29.97 in 10.0 mi West 10.4 mph - N/A   Mostly Cloudy
7:35 PM 77.0 °F - 68.0 °F 74% 29.97 in 10.0 mi West 5.8 mph - N/A   Overcast
7:55 PM 77.0 °F - 68.0 °F 74% 29.97 in 10.0 mi Calm Calm - N/A   Mostly Cloudy
8:15 PM 75.2 °F - 68.0 °F 78% 29.98 in 10.0 mi WSW 3.5 mph - N/A   Overcast
8:35 PM 73.4 °F - 68.0 °F 83% 29.98 in 10.0 mi Calm Calm - N/A   Scattered Clouds
8:55 PM 73.4 °F - 68.0 °F 83% 29.99 in 10.0 mi Calm Calm - N/A   Scattered Clouds
9:15 PM 73.4 °F - 68.0 °F 83% 29.99 in 10.0 mi Calm Calm - N/A   Mostly Cloudy
9:35 PM 71.6 °F - 68.0 °F 88% 30.00 in 10.0 mi Calm Calm - N/A   Mostly Cloudy
9:55 PM 71.6 °F - 68.0 °F 88% 30.01 in 10.0 mi Calm Calm - N/A   Mostly Cloudy
10:15 PM 71.6 °F - 68.0 °F 88% 30.01 in 10.0 mi Calm Calm - N/A   Overcast
10:35 PM 71.6 °F - 68.0 °F 88% 30.01 in 10.0 mi Calm Calm - N/A   Overcast
10:55 PM 71.6 °F - 68.0 °F 88% 30.01 in 10.0 mi WSW 4.6 mph - N/A   Overcast
11:15 PM 71.6 °F - 68.0 °F 88% 30.02 in 10.0 mi WSW 4.6 mph - N/A   Overcast
11:35 PM 69.8 °F - 68.0 °F 94% 30.02 in 10.0 mi WSW 4.6 mph - N/A   Overcast
11:55 PM 69.8 °F - 68.0 °F 94% 30.02 in 10.0 mi Calm Calm - N/A   Overcast